www.pogodaiklimat.ru

Погода и климат >> Архив погоды >> Эквадор >> Milagro


ПОГОДА в Milagro

  • Прогноз погоды в Milagro
  • Монитор погоды в Milagro
  • Климат города

АРХИВ ПОГОДЫ в Milagro

Время (UTC), дата Ветер
(напр.,м/с)
 
Видим.   Явления Облачность Т
(С)
Тd
(С)
f
(%)
Тe
(С)
Тes
(С)
Комфортность P
(гПа)
Po
(гПа)
Тmin
(С)
Tmax
(С)
R
(мм)
R24
(мм)
S
(см)
00 11.08 Ю 6 10 км мгла {туман} 8/3 600 м
[Sc Ac und]
+26.4 +21.5 74 +34 +34 очень
душно
1010.7 1010.7 +28.9
12 11.08 ЮЗ 6 8000 м мгла {туман} 9/9 300 м
[Sc]
+20.5 +19.2 92 +24 +24 комфорт 1013.4 1013.4 +20.5 +28.9
18 11.08 ЮЗ 4 10 км мгла {туман} 10/8 600 м
[Sc diur, vesp Ac und]
+26.6 +21.8 75 +34 +35 очень
душно
1013.0 1013.0
21 11.08 ЮВ 2 10 км мгла {туман} 5/5 300 м
[Sc diur, vesp]
+29.6 +22.7 66 +39 +42 очень
душно
1009.7 1009.7 +29.8
00 12.08 ЮЗ 4 8000 м мгла {туман} 10/6 200 м
[Sc Ac und]
+27.7 +22.9 75 +37 +37 очень
душно
1010.6 1010.6 +30.0
12 12.08 ЮЗ 4 8000 м мгла {туман} 10/6 300 м
[Sc As trans]
+21.2 +19.9 92 +26 +26 душно 1012.6 1012.6 +20.6 +30.0
15 12.08 ЮЗ 6 10 км мгла {туман} 10/6 300 м
[Sc diur, vesp As trans]
+23.2 +20.6 85 +31 +31 очень
душно
1013.7 1013.7
18 12.08 ЮЗ 6 10 км мгла {туман} 10/10 300 м
[Sc diur, vesp]
+25.9 +21.5 77 +33 +33 очень
душно
1011.3 1011.3
21 12.08 ЮЗ 4 10 км мгла {туман} 6/6 300 м
[Sc diur, vesp]
+28.2 +22.1 70 +37 +39 очень
душно
1008.8 1008.8 +29.2
00 13.08 ЮВ 4 5000 м мгла {туман} 8/5 600 м
[Sc Ac und]
+27.0 +22.4 76 +35 +35 очень
душно
1010.0 1010.0 +29.6
12 13.08 ЮЗ 6 5000 м мгла {туман} 10/6 300 м
[Sc As trans]
+21.4 +20.3 93 +27 +27 душно 1012.0 1012.0 +20.4 +29.6
15 13.08 ЮЗ 6 10 км мгла {туман} 10/10 300 м
[Sc]
+24.0 +21.0 83 +30 +30 очень
душно
1012.2 1012.2
18 13.08 ЮЗ 4 10 км мгла {туман} 9/9 300 м
[Sc diur, vesp]
+27.8 +22.2 72 +36 +38 очень
душно
1009.9 1009.9
21 13.08 ЮЗ 2 10 км мгла {туман} 9/9 300 м
[Sc diur, vesp]
+29.0 +22.3 67 +38 +38 очень
душно
1007.7 1007.7 +29.1
00 14.08 штиль 0 5000 м мгла {туман} 5/5 300 м
[Sc diur, vesp]
+26.9 +22.8 78 +36 +36 очень
душно
1009.2 1009.2 +29.4
12 14.08 ЮЗ 8 5000 м мгла {туман} 10/10 300 м
[Sc]
+21.8 +20.5 92 +28 +28 душно 1011.1 1011.1 +21.6 +29.4
15 14.08 ЮЗ 4 12 км мгла {туман} 10/10 300 м
[Sc]
+24.4 +21.1 82 +31 +31 очень
душно
1011.4 1011.4
18 14.08 ЮЗ 2 15 км мгла {туман} 10/5 300 м
[Sc Ac As]
+27.2 +22.5 76 +36 +39 очень
душно
1009.1 1009.1
21 14.08 ЮЗ 6 15 км мгла {туман} 5/4 600 м
[Cu med, cong Cs]
+29.6 +22.5 66 +39 +40 очень
душно
1007.1 1007.1 +30.0
00 15.08 Ю 6 10 км мгла {туман} 3/3 600 м
[Sc diur, vesp]
+27.4 +22.1 73 +36 +36 очень
душно
1008.2 1008.2 +30.8
12 15.08 ЮЗ 2 5000 м мгла {туман} 10/10 300 м
[Sc]
+21.2 +20.1 93 +26 +26 душно 1010.2 1010.2 +21.2 +30.8
15 15.08 Ю 2 10 км мгла {туман} 10/6 300 м
[Sc As trans]
+23.4 +20.8 85 +31 +33 очень
душно
1011.2 1011.2
18 15.08 Ю 2 15 км мгла {туман} 10/5 300 м
[Sc As trans Cs]
+26.0 +21.5 76 +33 +38 очень
душно
1009.7 1009.7
21 15.08 Ю 6 15 км мгла {туман} 10/5 600 м
[Cu hum Ac As]
+27.0 +22.0 74 +35 +35 очень
душно
1007.8 1007.8 +27.1
12 16.08 ЮЗ 2 4000 м осадки на расстоянии 10/6 300 м
[St As trans]
+21.3 +20.3 94 +26 +27 душно 1010.9 1010.9 +21.1 +27.5
15 16.08 ЮЗ 2 10 км осадки на расстоянии {туман} 10/6 300 м
[St As trans]
+22.8 +20.8 88 +30 +32 очень
душно
1011.9 1011.9
18 16.08 ЮЗ 6 15 км мгла {туман} 10/6 300 м
[Sc As trans]
+27.0 +22.0 74 +35 +36 очень
душно
1009.7 1009.7
21 16.08 ЮВ 4 15 км мгла {туман} 10/3 600 м
[Cu hum Ac trans Cs]
+28.6 +22.1 68 +37 +39 очень
душно
1007.7 1007.7 +28.9
12 17.08 ЮЗ 4 5000 м мгла {туман} 10/10 300 м
[Sc]
+21.6 +20.5 93 +27 +27 душно 1010.9 1010.9 +21.4 +29.4
18 17.08 Ю 6 15 км мгла {туман} 9/5 300 м
[Sc Ac As]
+27.6 +22.0 72 +36 +38 очень
душно
1008.7 1008.7
21 17.08 ЮВ 4 15 км мгла {туман} 9/5 300 м
[Cu hum Ac trans]
+29.0 +22.0 66 +37 +39 очень
душно
1007.3 1007.3 +29.7

 

Местоположение метеостанции Milagro (Эквадор): широта -2.12 долгота -79.60 высота над уровнем моря 13 м.

В архиве по умолчанию представлена погода в Milagro за последнюю неделю. Архивные данные за месяц целиком и за предыдущие месяцы, начиная с января 2011 года, Вы можете получить, выбрав интересующий диапазон дат из раскрывающегося списка и нажав кнопку "Ввод!".

Внимание! Время в таблицах - всемирное. Для получения местного времени необходимо прибавить поправку, которая в Milagro равна -5 ч.

Смотрите также архив погоды в соседних городах и на ближайших метеорологических станциях:

Погода в Guayaquil (Эквадор) (31 км)
Погода в Guayaquil Aeropuerto (Эквадор) (31 км)
Погода в Canar (Эквадор) (88 км)
Погода в Cuenca (Эквадор) (109 км)
Погода в Pichilingue (Эквадор) (115 км)
Погода в Riobamba (Эквадор) (117 км)
Погода в Corazon (Эквадор) (124 км)
Погода в Machala (Эквадор) (132 км)
Погода в Querochaca (Эквадор) (139 км)
Погода в Santa Rosa (Эквадор) (152 км)

Пояснения к столбцам:

Ветер - указаны скорость ветра в м/с - средняя за 10 мин, порывы в срок и между сроками (в фигурных скобках) и направление, откуда дует ветер: С - северный, СВ - северо-восточный, В - восточный, ЮВ - юго-восточный, Ю - южный, ЮЗ - юго-западный, З - западный, СЗ - северо-западный.
Видимость - горизонтальная дальность видимости в метрах или километрах. При видимости от 1 до 10 км при отсутствии осадков обычно наблюдается дымка, при ухудшении видимости до 1 км и менее - туман. В сухую погоду видимость может ухудшаться дымом, пылью или мглою.
Явления - указаны атмосферные явления, наблюдавшиеся в срок или в последний час перед сроком; фигурными скобками обозначены явления, наблюдавшиеся между сроками (за 1-3 часа до срока); квадратными скобками обозначены град или гололедные отложения с указанием их диаметра в мм.
Облачность - указаны через наклонную черту общая и нижняя облачность в баллах и высота нижней границы облаков в метрах; квадратными скобками обозначены формы облаков: Ci - перистые, Cs - перисто-слоистые, Cc - перисто-кучевые, Ac - высококучевые, As - высокослоистые, Sc - слоисто-кучевые, Ns - слоисто-дождевые, Cu - кучевые, Cb - кучево-дождевые. Подробнее классификацию облаков см. в Атласе облаков (PDF).
T - Температура воздуха - температура, измеренная на высоте 2 м над землей.
Td - Температура точки росы - температура, при понижении до которой содержащийся в воздухе водяной пар достигнет насыщения.
f - Относительная влажность воздуха - влажноcть воздуха, измеренная на высоте 2 м над землей.
Te - Эффективная температура - температура, которую ощущает одетый по сезону человек в тени. Характеристика душности погоды. При расчете учитывается влияние влажности воздуха и скорости ветра на теплоощущения человека.
Tes - Эффективная температура на солнце - температура, которую ощущает человек, с поправкой на солнечный нагрев. Характеристика знойности погоды. Зависит от высоты солнца над горизонтом, облачности и скорости ветра. Ночью, в пасмурную погоду, а также при ветре 12 м/с и более поправка равна нулю.
P - Атмосферное давление - приведенное к уровню моря атмосферное давление.
Po - Атмосферное давление - измеренное на уровне метеостанции атмосферное давление.
Tmin - Минимальная температура - минимум температуры воздуха на высоте 2 м над землей.
Tmax - Максимальная температура - максимум температуры воздуха на высоте 2 м над землей.
R - Количество осадков - Количество выпавших осадков за период времени, мм. При наведении курсора мыши на число - период времени, за который выпало указанное количество осадков.
R24 - Количество осадков - Количество выпавших осадков за 24 часа, мм.
S - Снежный покров - Высота снежного покрова, см. При наведении курсора мыши на число - состояние снежного покрова и степень покрытия местности в баллах.